www.pogodaiklimat.ru

Погода и климат >> Архив погоды >> Япония >> Нагано


ПОГОДА в Нагано

  • Прогноз погоды в Нагано
  • Монитор погоды в Нагано

АРХИВ ПОГОДЫ в Нагано

Время (UTC), дата Ветер
(напр.,м/с)
 
Видим.   Явления Облачность Т
(С)
Тd
(С)
f
(%)
Тe
(С)
Тes
(С)
Комфортность P
(гПа)
Po
(гПа)
Тmin
(С)
Tmax
(С)
R
(мм)
R24
(мм)
S
(см)
22 13.06 ЮЗ 4 20 км н/о +19.8 +14.2 70 +22 +22 комфорт 1012.4 964.6
23 13.06 З 3 20 км н/о +22.3 +13.9 59 +25 +25 комфорт 1011.6 964.3
00 14.06 ЮЗ 4 20 км н/о +23.8 +14.0 54 +26 +26 жарко 1010.7 963.7 +15.5
01 14.06 ЮЗ 3 20 км н/о +24.9 +15.0 54 +28 +28 жарко 1009.8 963.0
02 14.06 ЮЗ 5 20 км н/о +26.4 +13.5 45 +28 +28 жарко 1008.9 962.4
03 14.06 ЮЗ 4 20 км н/о +28.5 +12.4 37 +30 +30 жарко 1007.5 961.4
04 14.06 ЮЗ 6 20 км н/о +27.8 +11.4 36 +29 +29 жарко 1007.3 961.1
05 14.06 ЮЗ 5 20 км н/о +27.1 +13.5 43 +29 +29 жарко 1006.9 960.6
06 14.06 З 3 20 км н/о +26.1 +13.6 46 +28 +28 жарко 1007.0 960.5
07 14.06 ЮВ 5 20 км н/о +25.7 +13.2 46 +28 +28 жарко 1006.8 960.3
08 14.06 ЮВ 2 20 км н/о +24.8 +13.1 48 +27 +27 жарко 1006.7 960.0
09 14.06 ЮЗ 2 20 км н/о +24.0 +13.6 52 +26 +26 жарко 1006.9 960.1
10 14.06 ЮЗ 5 20 км н/о +22.6 +12.8 54 +25 +25 комфорт 1007.9 960.8
11 14.06 ЮЗ 3 20 км н/о +22.1 +10.9 49 +24 +24 комфорт 1008.7 961.5
12 14.06 ЮЗ 3 20 км н/о +21.4 +11.7 54 +23 +23 комфорт 1008.4 961.1 +28.6
13 14.06 З 5 20 км н/о +20.8 +12.2 58 +23 +23 комфорт 1008.6 961.1
14 14.06 ЮЗ 3 20 км н/о +20.3 +12.8 62 +23 +23 комфорт 1008.7 961.1
15 14.06 ЮЗ 5 20 км н/о +19.7 +13.0 65 +21 +21 комфорт 1007.9 960.3
16 14.06 ЮЗ 4 20 км слаб. дождь н/о +18.7 +13.6 72 +19 +19 1007.4 959.6
17 14.06 З 6 19 км слаб. дождь н/о +18.8 +13.2 70 +19 +19 1006.2 958.5
18 14.06 З 6 17 км слаб. дождь н/о +16.9 +14.0 83 +16 +16 1005.7 957.7 0.0
19 14.06 Ю 2 18 км слаб. дождь н/о +17.1 +13.0 77 +17 +17 1005.5 957.5
20 14.06 З 6 16 км слаб. дождь н/о +16.4 +13.1 81 +15 +15 1005.2 957.1
21 14.06 ЮЗ 7 15 км слаб. дождь н/о +15.4 +12.9 85 +14 +14 1005.9 957.6
22 14.06 З 8 20 км слаб. дождь н/о +15.1 +11.9 81 +13 +13 1005.2 956.9
23 14.06 ЮЗ 4 20 км слаб. дождь н/о +16.7 +11.6 72 +16 +16 1004.0 956.0
00 15.06 ЮЗ 5 20 км в посл. час дождь н/о +17.2 +12.1 72 +17 +17 1003.8 955.9 +14.7 3
01 15.06 З 8 20 км слаб. дождь н/о +16.8 +11.9 73 +15 +15 1002.9 955.0
02 15.06 З 11 20 км в посл. час дождь н/о +17.2 +11.5 69 +16 +16 1001.6 953.8
03 15.06 З 9 20 км {дождь} н/о +18.6 +11.7 64 +18 +18 998.8 951.4
04 15.06 З 9 20 км н/о +19.1 +12.1 64 +19 +19 997.8 950.5
05 15.06 З 9 20 км слаб. дождь н/о +19.0 +11.8 63 +19 +19 996.0 948.8
06 15.06 З 7 20 км в посл. час дождь н/о +20.6 +12.1 58 +22 +22 комфорт 993.9 947.1 0.0
07 15.06 З 7 20 км слаб. дождь н/о +19.4 +12.4 64 +20 +20 993.2 946.2
08 15.06 З 8 20 км слаб. дождь н/о +16.9 +13.6 81 +16 +16 993.9 946.4
09 15.06 З 7 20 км слаб. дождь н/о +16.2 +13.9 86 +15 +15 993.7 946.1
10 15.06 З 6 20 км в посл. час дождь н/о +17.3 +13.4 78 +17 +17 992.4 945.1
11 15.06 З 8 20 км слаб. дождь н/о +17.5 +13.2 76 +16 +16 991.2 944.0
12 15.06 З 6 20 км в посл. час дождь н/о +17.8 +13.3 75 +17 +17 990.8 943.6 +21.0 2
13 15.06 З 6 20 км н/о +18.0 +13.5 75 +18 +18 989.6 942.5
14 15.06 З 5 20 км н/о +17.9 +13.6 76 +17 +17 988.6 941.6
15 15.06 З 6 20 км н/о +18.6 +13.9 74 +19 +19 987.7 940.8
16 15.06 З 4 20 км в посл. час дождь н/о +18.1 +14.0 77 +18 +18 987.1 940.2
17 15.06 ЮЗ 3 20 км в посл. час дождь н/о +18.3 +14.2 77 +19 +19 986.9 940.0
18 15.06 З 3 20 км в посл. час дождь н/о +17.1 +14.9 87 +17 +17 986.9 939.8 0.0
19 15.06 СВ 2 20 км н/о +15.8 +14.9 94 +16 +16 987.6 940.2
20 15.06 СВ 1 20 км в посл. час дождь н/о +15.9 +14.8 93 +17 +17 988.2 940.8
21 15.06 С 1 20 км слаб. дождь н/о +16.3 +15.0 92 +17 +17 988.8 941.5
22 15.06 Ю 1 20 км в посл. час дождь н/о +17.9 +15.7 87 +20 +20 988.6 941.6
23 15.06 Ю 1 20 км слаб. дождь н/о +18.3 +15.4 83 +20 +20 989.3 942.3
00 16.06 ЮВ 1 20 км слаб. дождь н/о +20.0 +15.9 77 +24 +24 комфорт 989.5 942.8 +15.7 0.0
01 16.06 Ю 1 20 км слаб. дождь н/о +21.8 +15.4 67 +25 +25 комфорт 989.6 943.2
02 16.06 З 3 20 км слаб. дождь н/о +22.3 +13.9 59 +25 +25 комфорт 990.4 944.1
03 16.06 СВ 2 20 км в посл. час дождь н/о +22.5 +15.1 63 +26 +26 жарко 990.9 944.6
04 16.06 З 2 20 км слаб. дождь н/о +21.7 +12.3 55 +24 +24 комфорт 992.1 945.6
05 16.06 В 3 20 км слаб. дождь н/о +21.4 +14.3 64 +24 +24 комфорт 992.9 946.3
06 16.06 ЮЗ 2 20 км в посл. час дождь н/о +21.3 +12.2 56 +23 +23 комфорт 993.9 947.2 0.0
07 16.06 В 2 20 км н/о +21.4 +13.6 61 +24 +24 комфорт 995.0 948.3
08 16.06 СВ 3 20 км в посл. час дождь н/о +20.1 +12.4 61 +22 +22 комфорт 996.1 949.1
09 16.06 В 3 20 км {дождь} н/о +19.3 +11.9 62 +21 +21 комфорт 997.4 950.2
10 16.06 В 2 20 км в посл. час дождь н/о +18.2 +11.8 66 +19 +19 999.0 951.5
11 16.06 В 2 20 км в посл. час дождь н/о +16.7 +11.6 72 +17 +17 1000.6 952.8
12 16.06 ЮВ 2 20 км {дождь} н/о +15.8 +11.6 76 +16 +16 1002.4 954.3 +23.1 0.0
13 16.06 ЮВ 1 20 км н/о +15.8 +11.6 76 +16 +16 1003.4 955.3
14 16.06 В 1 20 км н/о +15.5 +11.7 78 +16 +16 1004.5 956.3
15 16.06 С 1 20 км н/о +15.1 +11.7 80 +16 +16 1005.1 956.8
16 16.06 В 4 20 км слаб. дождь н/о +14.1 +11.6 85 +13 +13 1006.1 957.5
17 16.06 СВ 4 20 км в посл. час дождь н/о +14.4 +11.2 81 +13 +13 1006.6 958.1
18 16.06 С 6 20 км в посл. час дождь н/о +14.3 +10.9 80 +12 +12 1007.9 959.3 0.0
19 16.06 С 5 20 км н/о +14.1 +10.9 81 +12 +12 1008.8 960.1
20 16.06 С 4 20 км н/о +14.1 +10.3 78 +13 +13 1009.3 960.6
21 16.06 В 4 20 км н/о +15.2 +10.6 74 +14 +14 1010.2 961.6
22 16.06 В 4 20 км н/о +15.7 +10.1 69 +15 +15 1011.0 962.5
23 16.06 В 5 20 км н/о +16.5 +10.4 67 +16 +16 1011.6 963.2
00 17.06 В 4 20 км н/о +16.9 +10.8 67 +17 +17 1011.8 963.5 +13.8 0.0
01 17.06 В 4 20 км н/о +17.4 +10.5 64 +17 +17 1011.9 963.7
02 17.06 В 4 20 км н/о +17.9 +9.8 59 +18 +18 1012.0 963.8
03 17.06 В 4 20 км н/о +19.4 +10.9 58 +21 +21 комфорт 1011.6 963.7
04 17.06 В 5 20 км н/о +20.7 +10.8 53 +23 +23 комфорт 1011.0 963.4
05 17.06 С 4 20 км н/о +21.8 +11.5 52 +24 +24 комфорт 1010.7 963.3
06 17.06 С 5 20 км н/о +21.4 +11.7 54 +23 +23 комфорт 1010.5 963.1
07 17.06 С 4 20 км н/о +20.8 +12.5 59 +23 +23 комфорт 1010.8 963.2
08 17.06 С 5 20 км н/о +17.9 +12.4 70 +17 +17 1011.4 963.3
09 17.06 С 6 20 км н/о +16.9 +11.8 72 +16 +16 1012.0 963.7
10 17.06 С 5 20 км н/о +15.9 +11.7 76 +15 +15 1012.6 964.1
11 17.06 СЗ 1 20 км н/о +15.5 +11.5 77 +16 +16 1013.5 964.8
12 17.06 ЮЗ 1 20 км н/о +14.8 +11.4 80 +15 +15 1014.4 965.6 +22.6
13 17.06 СЗ 1 20 км н/о +13.9 +11.3 84 +14 +14 1015.1 966.1
14 17.06 ЮЗ 1 20 км н/о +13.7 +11.1 84 +14 +14 1015.3 966.2
15 17.06 З 2 20 км н/о +13.6 +11.3 86 +13 +13 1015.1 966.0
16 17.06 ЮЗ 1 20 км н/о +13.6 +11.3 86 +15 +15 1015.1 966.0
17 17.06 СЗ 1 20 км н/о +12.6 +11.0 90 +13 +13 1015.4 966.1
18 17.06 З 1 20 км н/о +12.2 +10.9 92 +12 +12 1015.3 966.0
19 17.06 Ю 1 20 км н/о +11.9 +10.8 93 +13 +13 1015.6 966.2
20 17.06 штиль 0 20 км н/о +12.0 +11.1 94 +11 +11 1015.3 965.9
21 17.06 СВ 1 20 км н/о +12.7 +11.3 91 +13 +13 1015.3 966.0
22 17.06 ЮЗ 3 20 км н/о +15.8 +11.8 77 +15 +15 1014.2 965.6
23 17.06 ЮЗ 3 20 км в посл. час дождь н/о +17.9 +11.9 68 +18 +18 1013.2 965.0
00 18.06 Ю 2 20 км {дождь} н/о +19.4 +12.2 63 +21 +21 комфорт 1012.4 964.5 +11.5 0.0
01 18.06 ЮЗ 3 20 км н/о +21.9 +12.5 55 +24 +24 комфорт 1011.1 963.7
02 18.06 ЮЗ 3 20 км н/о +23.5 +12.8 51 +26 +26 жарко 1010.1 963.0
03 18.06 ЮЗ 2 20 км н/о +25.3 +13.2 47 +27 +27 жарко 1008.8 962.1
04 18.06 Ю 2 20 км н/о +26.7 +12.4 41 +28 +28 жарко 1007.5 961.1
05 18.06 С 4 20 км н/о +26.7 +14.1 46 +29 +29 жарко 1007.1 960.7
06 18.06 С 6 20 км н/о +25.1 +14.9 53 +28 +28 жарко 1007.1 960.5
07 18.06 С 5 20 км н/о +22.6 +14.5 60 +26 +26 жарко 1007.7 960.6
08 18.06 С 5 20 км н/о +21.1 +13.0 60 +23 +23 комфорт 1008.5 961.1
09 18.06 С 4 20 км в посл. час дождь н/о +21.0 +13.7 63 +24 +24 комфорт 1008.7 961.3
10 18.06 В 5 20 км н/о +20.2 +14.1 68 +22 +22 комфорт 1009.6 962.0
11 18.06 В 2 20 км слаб. дождь н/о +19.0 +15.3 79 +21 +21 комфорт 1010.3 962.4
12 18.06 В 2 20 км в посл. час дождь н/о +18.5 +15.4 82 +20 +20 1010.6 962.6 +27.8 0.0
13 18.06 ЮЗ 1 20 км н/о +18.4 +15.3 82 +20 +20 1010.8 962.8
14 18.06 В 1 20 км н/о +18.2 +15.1 82 +20 +20 1010.8 962.8
15 18.06 С 1 20 км н/о +18.0 +14.7 81 +20 +20 1010.3 962.2
16 18.06 З 1 20 км н/о +17.4 +15.0 86 +18 +18 1010.0 961.9
17 18.06 СВ 1 20 км н/о +17.1 +15.3 89 +19 +19 1009.6 961.4
18 18.06 В 2 20 км н/о +16.8 +15.0 89 +17 +17 1009.6 961.4
19 18.06 С 1 20 км н/о +15.9 +14.6 92 +17 +17 1009.9 961.5
20 18.06 З 1 20 км н/о +15.8 +14.5 92 +16 +16 1009.5 961.1
21 18.06 ЮЗ 2 20 км н/о +17.2 +14.5 84 +18 +18 1009.1 961.0
22 18.06 ЮЗ 1 20 км н/о +18.8 +14.5 76 +21 +21 комфорт 1008.6 960.8
23 18.06 ЮЗ 2 20 км н/о +20.5 +14.6 69 +24 +24 комфорт 1008.0 960.5
00 19.06 ЮВ 2 20 км н/о +20.4 +14.1 67 +24 +24 комфорт 1007.9 960.4 +15.6
01 19.06 СВ 2 20 км н/о +20.9 +15.2 70 +25 +25 комфорт 1007.3 959.9
02 19.06 СВ 2 20 км н/о +22.0 +15.6 67 +26 +26 душно 1006.3 959.2
03 19.06 В 4 20 км н/о +23.6 +16.2 63 +27 +27 жарко 1005.4 958.6
04 19.06 С 4 20 км н/о +23.3 +16.1 64 +28 +28 душно 1005.1 958.2
05 19.06 С 4 20 км н/о +23.0 +15.6 63 +27 +27 душно 1004.7 957.8
06 19.06 С 3 20 км н/о +23.7 +16.0 62 +27 +27 жарко 1003.9 957.2
07 19.06 С 4 20 км н/о +23.1 +16.2 65 +28 +28 душно 1004.0 957.2
08 19.06 С 4 20 км н/о +21.9 +15.0 65 +25 +25 комфорт 1004.4 957.3
09 19.06 С 3 20 км н/о +20.9 +15.2 70 +24 +24 комфорт 1004.8 957.5
10 19.06 С 3 18 км н/о +19.7 +15.2 75 +22 +22 комфорт 1005.2 957.7
11 19.06 В 1 19 км н/о +19.5 +15.2 76 +23 +23 комфорт 1005.8 958.2
12 19.06 З 2 17 км н/о +18.2 +14.7 80 +19 +19 1006.6 958.8 +24.5
13 19.06 ЮЗ 1 16 км н/о +17.8 +14.7 82 +19 +19 1006.7 958.8
14 19.06 З 1 17 км н/о +17.8 +14.9 83 +19 +19 1006.5 958.6
15 19.06 З 1 16 км н/о +17.5 +14.8 84 +19 +19 1006.5 958.5
16 19.06 З 2 16 км н/о +17.6 +15.1 85 +18 +18 1005.9 958.0
17 19.06 Ю 1 16 км н/о +17.8 +15.3 85 +19 +19 1005.7 957.8
18 19.06 СВ 1 12 км н/о +17.6 +15.4 87 +19 +19 1005.7 957.8
19 19.06 СЗ 1 13 км н/о +17.2 +15.4 89 +19 +19 1005.7 957.7
20 19.06 В 2 10 км н/о +16.6 +15.1 91 +17 +17 1006.3 958.2
21 19.06 ЮЗ 1 10 км н/о +17.3 +15.5 89 +19 +19 1006.2 958.2
22 19.06 В 1 16 км в посл. час дождь н/о +19.4 +15.7 79 +22 +22 комфорт 1005.9 958.3
23 19.06 Ю 1 14 км н/о +19.8 +15.5 76 +23 +23 комфорт 1006.0 958.5
00 20.06 СВ 2 15 км {дождь} н/о +21.8 +15.9 69 +25 +25 комфорт 1005.6 958.5 +16.6 0.0
01 20.06 СВ 2 20 км н/о +24.5 +15.4 57 +27 +27 жарко 1004.8 958.2
02 20.06 СВ 2 19 км н/о +24.7 +15.9 58 +28 +28 душно 1004.5 957.9
03 20.06 В 2 19 км н/о +26.3 +16.8 56 +30 +30 душно 1003.6 957.3
04 20.06 С 4 19 км н/о +27.1 +16.7 53 +31 +31 душно 1002.9 956.8
05 20.06 С 5 20 км н/о +25.9 +16.5 56 +29 +29 душно 1003.0 956.7
06 20.06 С 5 20 км н/о +26.7 +16.3 53 +30 +30 душно 1002.8 956.6
07 20.06 С 5 18 км н/о +25.3 +17.3 61 +29 +29 душно 1002.9 956.5
08 20.06 С 6 14 км н/о +22.4 +16.7 70 +27 +27 душно 1004.1 957.1
09 20.06 СВ 3 15 км н/о +21.9 +16.9 73 +26 +26 душно 1005.3 958.2
10 20.06 СВ 4 13 км н/о +21.4 +16.4 73 +25 +25 комфорт 1006.1 958.9
11 20.06 СВ 4 18 км н/о +21.2 +15.5 70 +24 +24 комфорт 1007.1 959.8
12 20.06 В 3 18 км н/о +21.2 +15.5 70 +24 +24 комфорт 1008.1 960.7 +28.4
13 20.06 ЮВ 1 17 км н/о +20.7 +15.7 73 +25 +25 комфорт 1008.5 961.0
14 20.06 З 2 14 км н/о +19.6 +16.3 81 +23 +23 комфорт 1008.7 961.0
15 20.06 З 2 13 км н/о +19.3 +16.5 84 +22 +22 комфорт 1008.6 960.9
16 20.06 СЗ 2 12 км н/о +18.9 +16.3 85 +21 +21 комфорт 1008.7 960.9
17 20.06 З 1 13 км н/о +19.1 +16.2 83 +22 +22 комфорт 1008.6 960.8
18 20.06 СЗ 1 11 км н/о +17.8 +15.8 88 +19 +19 1008.9 960.9
19 20.06 СЗ 1 10 км н/о +17.3 +15.7 90 +18 +18 1009.5 961.4
20 20.06 З 2 12 км н/о +17.4 +15.4 88 +18 +18 1009.5 961.4

 

Местоположение метеостанции Нагано (Япония): широта 36.67 долгота 138.20 высота над уровнем моря 419 м.

В архиве по умолчанию представлена погода в Нагано за последнюю неделю. Архивные данные за месяц целиком и за предыдущие месяцы, начиная с января 2011 года, Вы можете получить, выбрав интересующий диапазон дат из раскрывающегося списка и нажав кнопку "Ввод!".


*Определитесь, кто Вы:
робот инопланетянин человек

Внимание! Время в таблицах - всемирное. Для получения местного времени необходимо прибавить поправку, которая равна 9 ч.

Смотрите также архив погоды в соседних городах и на ближайших метеорологических станциях:

Погода в Каруидзаве (Япония) (47 км)
Погода в Такаде (Япония) (48 км)
Погода в Мацумото (Япония) (51 км)
Погода в Суве (Япония) (69 км)
Погода в Маебаши (Япония) (83 км)
Погода в Тояме (Япония) (89 км)
Погода в Такаяме (Япония) (103 км)
Погода в Фушики (Япония) (104 км)
Погода в Чичибу (Япония) (109 км)
Погода в Кофу (Япония) (116 км)

Пояснения к столбцам:

Ветер - указаны скорость ветра в м/с - средняя за 10 мин, порывы в срок и между сроками (в фигурных скобках) и направление, откуда дует ветер: С - северный, СВ - северо-восточный, В - восточный, ЮВ - юго-восточный, Ю - южный, ЮЗ - юго-западный, З - западный, СЗ - северо-западный.
Видимость - горизонтальная дальность видимости в метрах или километрах. При видимости от 1 до 10 км при отсутствии осадков обычно наблюдается дымка, при ухудшении видимости до 1 км и менее - туман. В сухую погоду видимость может ухудшаться дымом, пылью или мглою.
Явления - указаны атмосферные явления, наблюдавшиеся в срок или в последний час перед сроком; фигурными скобками обозначены явления, наблюдавшиеся между сроками (за 1-3 часа до срока); квадратными скобками обозначены град или гололедные отложения с указанием их диаметра в мм.
Облачность - указаны через наклонную черту общая и нижняя облачность в баллах и высота нижней границы облаков в метрах; квадратными скобками обозначены формы облаков: Ci - перистые, Cs - перисто-слоистые, Cc - перисто-кучевые, Ac - высококучевые, As - высокослоистые, Sc - слоисто-кучевые, Ns - слоисто-дождевые, Cu - кучевые, Cb - кучево-дождевые. Подробнее классификацию облаков см. в Атласе облаков (PDF).
T - Температура воздуха - температура, измеренная на высоте 2 м над землей.
Td - Температура точки росы - температура, при понижении до которой содержащийся в воздухе водяной пар достигнет насыщения.
f - Относительная влажность воздуха - влажноcть воздуха, измеренная на высоте 2 м над землей.
Te - Эффективная температура - температура, которую ощущает одетый по сезону человек в тени. Характеристика душности погоды. При расчете учитывается влияние влажности воздуха и скорости ветра на теплоощущения человека.
Tes - Эффективная температура на солнце - температура, которую ощущает человек, с поправкой на солнечный нагрев. Характеристика знойности погоды. Зависит от высоты солнца над горизонтом, облачности и скорости ветра. Ночью, в пасмурную погоду, а также при ветре 12 м/с и более поправка равна нулю.
P - Атмосферное давление - приведенное к уровню моря атмосферное давление.
Po - Атмосферное давление - измеренное на уровне метеостанции атмосферное давление.
Tmin - Минимальная температура - минимум температуры воздуха на высоте 2 м над землей.
Tmax - Максимальная температура - максимум температуры воздуха на высоте 2 м над землей.
R - Количество осадков - Количество выпавших осадков за период времени, мм. При наведении курсора мыши на число - период времени, за который выпало указанное количество осадков.
R24 - Количество осадков - Количество выпавших осадков за 24 часа, мм.
S - Снежный покров - Высота снежного покрова, см. При наведении курсора мыши на число - состояние снежного покрова и степень покрытия местности в баллах.